User: anonymous   Login
Location: Dappach
(48.9767°N, 9.6998°E)
Time: 22:40:35
(UTC+00:00)
Language:

Cosmos 1782 Rocket - Orbit

View from above orbital plane
View from above orbital plane
View from above satellite
View from above satellite

Ground track
Ground track

The orbit data is extracted from the following two-line orbital elements,

1 16987U 86074B   24204.08032319  .00001054  00000-0  12277-3 0  9996
2 16987  82.5142  42.0283 0017906   3.5011 114.4993 14.84256239 42671
Epoch (UTC): 22 July 2024 01:55:39
Eccentricity: 0.0017906
inclination: 82.5142°
perigee height: 603 km
apogee height: 628 km
right ascension of ascending node: 42.0283°
argument of perigee: 3.5011°
revolutions per day: 14.84256239
mean anomaly at epoch: 114.4993°
orbit number at epoch: 4267

The dashed part of the orbit path shows where the satellite is in the earth's shadow,  

DLR